Tracking 20621 objects as of 31-Mar-2020
HD Live streaming from Space Station
objects crossing your sky now

COSMOS 2535 DEB

Track COSMOS 2535 DEB now!
10-day predictions


NORAD ID: 45011
Int'l Code: 2019-039AC
Perigee: 618.1 km
Apogee: 800.0 km
Inclination: 97.0 °
Period: 98.8 minutes
Semi major axis: 7080 km
RCS: Unknown
Launch date: July 10, 2019
Source: Commonwealth of Independent States (former USSR) (CIS)
Launch site: PLESETSK MISSILE AND SPACE COMPLEX (PKMTR)

Note: This is SATELLITE DEBRIS
aabbcc
Your satellite tracking list
Your tracking list is empty




NASA's NSSDC Master Catalog

Two Line Element Set (TLE):
1 45011U 19039AC  20014.08995996 -.00437279 +00000-0 -90580-1 0  9992
2 45011 097.0487 068.2009 0128467 313.1128 045.9383 14.57307958000663
Source of the keplerian elements: AFSPC